Location: �perlecques
(50.8057°N, 2.1521°E)
Time: 14:43:09
(UTC+00:00)

Max Valier Satellite - Visible Passes

Search period start: 01 April 2023 00:00
Search period end: 11 April 2023 00:00
Orbit: 454 x 466 km, 97.2° (Epoch: 31 March)

Date Brightness Start Highest point End Pass type
(mag) Time Alt. Az. Time Alt. Az. Time Alt. Az.
01 Apr ? 19:27:21 10° S 19:30:41 51° W 19:34:04 10° NNW visible
02 Apr ? 18:55:26 10° SSE 18:58:50 64° ENE 19:02:15 10° N visible
02 Apr ? 20:31:16 10° WSW 20:32:14 11° W 20:33:12 10° WNW visible
03 Apr ? 19:57:13 10° SSW 20:00:02 24° W 20:02:53 10° NW visible
04 Apr ? 19:24:35 10° S 19:27:57 55° W 19:31:21 10° NNW visible
05 Apr ? 20:27:59 10° WSW 20:29:17 12° W 20:30:36 10° WNW visible
06 Apr ? 19:54:03 10° SSW 19:56:56 25° W 19:59:52 10° NW visible
07 Apr ? 19:21:18 10° S 19:24:41 60° W 19:28:07 10° NNW visible
08 Apr ? 20:24:13 10° WSW 20:25:50 13° W 20:27:27 10° WNW visible
09 Apr ? 19:50:21 10° SSW 19:53:20 27° W 19:56:21 10° NW visible
10 Apr ? 19:17:32 10° S 19:20:56 67° W 19:24:23 10° NNW visible
